This demonstration page uses our WeatherBlox Daily Observations layout. Learn more.

Hourly Observations for February 2, 2019

Temp ( °F °C ) Dew Point ( °F °C ) Humidity (%) Winds ( mph kmh ) Pressure ( in mb ) Visibility ( mi km ) Precip ( " mm )
12:54 am 00:54 Clear 39 3.9 36 2.2 89 89 SSW 13 20 30.04 1017 8 12.87472 0 0
1:30 am 01:30 Mostly Cloudy 40 4.4 37 2.8 89 89 SSW 15 24 30.05 1018 8 12.87472 0 0
1:54 am 01:54 Cloudy 41 5 38 3.3 89 89 SSW 16 26 30.02 1017 8 12.87472 0 0
2:54 am 02:54 Cloudy 41 5 38 3.3 89 89 SSW 14 22 30.01 1016 7 11.26538 0 0
3:40 am 03:40 Cloudy 41 5 38 3.3 89 89 SSW 12 19 30.03 1017 7 11.26538 0 0
3:54 am 03:54 Cloudy 41 5 38 3.3 89 89 SW 13 20 30 1016 7 11.26538 0 0
4:54 am 04:54 Cloudy with Mist and Fog 41 5 39 3.9 93 93 SSW 9 15 29.99 1016 5 8.0467 0 0
5:23 am 05:23 Cloudy with Mist and Fog 40 4.4 38 3.3 93 93 SSW 8 13 30.01 1016 5 8.0467 0 0
5:54 am 05:54 Cloudy with Mist and Fog 40 4.4 38 3.3 93 93 S 5 7 29.98 1015 6 9.65604 0 0
6:27 am 06:27 Cloudy with Mist and Fog 39 3.9 37 2.8 93 93 S 5 7 29.99 1016 5 8.0467 0 0
6:54 am 06:54 Cloudy with Mist and Fog 39 3.9 38 3.3 96 96 S 6 9 29.97 1015 5 8.0467 0 0
7:18 am 07:18 Cloudy with Mist and Fog 40 4.4 38 3.3 93 93 SSW 8 13 29.99 1016 5 8.0467 0 0
7:54 am 07:54 Cloudy with Mist and Fog 40 4.4 38 3.3 93 93 SSW 10 17 29.97 1015 3 4.82802 0 0
8:03 am 08:03 Cloudy with Mist and Fog 40 4.4 38 3.3 93 93 SSW 9 15 29.99 1016 2 3.21868 0 0
8:24 am 08:24 Cloudy with Mist and Fog 40 4.4 39 3.9 97 97 SSW 8 13 29.98 1015 1.75 2.816345 0 0
8:54 am 08:54 Cloudy with Mist and Fog 40 4.4 39 3.9 97 97 SSW 6 9 29.97 1015 2 3.21868 0 0
9:54 am 09:54 Cloudy with Mist and Fog 41 5 39 3.9 93 93 S 12 19 29.94 1014 2.5 4.02335 0 0
10:16 am 10:16 Cloudy with Mist and Fog 42 5.6 40 4.4 92 92 S 8 13 29.95 1014 3 4.82802 0 0
10:45 am 10:45 Cloudy with Mist and Fog 42 5.6 40 4.4 92 92 S 10 17 29.95 1014 5 8.0467 0 0
10:54 am 10:54 Cloudy with Mist and Fog 43 6.1 41 5 93 93 S 12 19 29.93 1014 5 8.0467 0 0
11:54 am 11:54 Cloudy 43 6.1 41 5 93 93 S 10 17 29.91 1013 7 11.26538 0 0
12:10 pm 12:10 Cloudy 44 6.7 41 5 89 89 SSW 12 19 29.91 1013 7 11.26538 0 0
12:51 pm 12:51 Cloudy 45 7 43 6 93 93 S 10 17 29.89 1012 7 11.26538 0 0
12:54 pm 12:54 Cloudy 44 6.7 42 5.6 93 93 S 12 19 29.87 1011 7 11.26538 0 0
1:07 pm 13:07 Cloudy with Mist and Fog 44 6.7 42 5.6 93 93 S 10 17 29.87 1011 6 9.65604 0 0
1:54 pm 13:54 Cloudy with Mist and Fog 45 7.2 43 6.1 93 93 S 12 19 29.82 1010 4 6.43736 0 0
2:54 pm 14:54 Cloudy with Mist and Fog 45 7.2 43 6.1 93 93 S 8 13 29.79 1009 4 6.43736 0 0
3:12 pm 15:12 Cloudy with Mist and Fog 45 7.2 44 6.7 97 97 S 6 9 29.8 1009 2 3.21868 0 0
3:19 pm 15:19 Cloudy with Mist and Fog 45 7.2 44 6.7 97 97 S 7 11 29.8 1009 1.25 2.011675 0 0
3:45 pm 15:45 Cloudy with Mist and Fog 45 7.2 44 6.7 97 97 S 8 13 29.79 1009 3 4.82802 0 0
3:54 pm 15:54 Cloudy with Mist and Fog 46 7.8 45 7.2 96 96 S 7 11 29.78 1009 4 6.43736 0 0
4:18 pm 16:18 Cloudy with Mist and Fog 46 7.8 45 7.2 96 96 S 7 11 29.79 1009 5 8.0467 0 0
4:54 pm 16:54 Cloudy with Mist and Fog 46 7.8 44 6.7 93 93 S 8 13 29.77 1008 5 8.0467 0 0
5:23 pm 17:23 Cloudy with Mist and Fog 44 6.7 43 6.1 96 96 S 6 9 29.79 1009 4 6.43736 0 0
5:31 pm 17:31 Mostly Cloudy with Mist and Fog 44 6.7 42 5.6 93 93 S 7 11 29.78 1008 3 4.82802 0 0
5:38 pm 17:38 Mostly Cloudy with Mist and Fog 43 6.1 42 5.6 97 97 S 8 13 29.78 1008 2 3.21868 0 0
5:40 pm 17:40 Mostly Cloudy with Mist and Fog 43 6.1 42 5.6 97 97 S 8 13 29.78 1008 1.5 2.41401 0 0
5:45 pm 17:45 Mostly Cloudy with Fog 41 5 41 5 100 100 S 8 13 29.78 1009 0.25 0.402335 0 0
5:54 pm 17:54 Mostly Cloudy with Fog 39 3.9 39 3.9 100 100 S 7 11 29.76 1008 5 8.0467 0 0
6:01 pm 18:01 Mostly Cloudy with Fog 39 3.9 38 3.3 96 96 S 8 13 29.78 1008 0.25 0.402335 0 0
6:18 pm 18:18 Mostly Cloudy with Fog 39 3.9 38 3.3 96 96 S 6 9 29.78 1008 0.25 0.402335 0 0
6:29 pm 18:29 Mostly Cloudy with Fog 40 4.4 40 4.4 100 100 S 6 9 29.78 1008 5 8.0467 0 0
6:54 pm 18:54 Mostly Cloudy with Fog 40 4.4 40 4.4 100 100 SSE 7 11 29.76 1008 5 8.0467 0 0
7:14 pm 19:14 Mostly Cloudy with Fog 40 4.4 40 4.4 100 100 S 3 6 29.78 1008 0.25 0.402335 0 0
7:31 pm 19:31 Mostly Cloudy with Fog 39 3.9 38 3.3 96 96 S 3 6 29.78 1008 0.25 0.402335 0 0
7:54 pm 19:54 Mostly Cloudy with Fog 39 3.9 39 3.9 100 100 Calm 29.75 1008 5 8.0467 0 0
8:50 pm 20:50 Mostly Cloudy with Fog 37 3 36 2 93 93 Calm 29.76 1008 0.25 0.402335 0 0
8:54 pm 20:54 Mostly Cloudy with Fog 36 2.2 36 2.2 100 100 Calm 29.74 1007 0.5 0.80467 0 0
9:14 pm 21:14 Mostly Cloudy with Fog 35 1.7 34 1.1 96 96 Calm 29.77 1008 0.25 0.402335 0 0
9:24 pm 21:24 Mostly Cloudy with Mist and Fog 35 1.7 34 1.1 96 96 S 3 6 29.77 1008 0.75 1.207005 0 0
9:31 pm 21:31 Partly Cloudy with Mist and Fog 34 1.1 34 1.1 100 100 S 7 11 29.76 1008 1.25 2.011675 0 0
9:39 pm 21:39 Mostly Clear with Mist and Fog 37 2.8 35 1.7 93 93 S 9 15 29.76 1008 3 4.82802 0 0
9:54 pm 21:54 Clear with Mist and Fog 44 6.7 42 5.6 93 93 S 12 19 29.72 1006 6 9.65604 0 0
10:54 pm 22:54 Clear 47 8.3 45 7.2 93 93 SSW 10 17 29.72 1006 8 12.87472 0 0
11:54 pm 23:54 Clear 45 7.2 44 6.7 97 97 SSW 8 13 29.71 1006 7 11.26538 0 0

Powered by AerisWeather